Home > Weather > Weno > Past weeks

Flag for Micronesia Past Weather in Weno, Truk, Micronesia — Yesterday and Last 2 Weeks

Now
83 °F

Passing clouds.


Feels Like: 93 °F
Forecast: 79 / 87 °F
Wind: 6 mph from North

Location: Truk Intl / Moen Island

Current Time: Jul 31, 2016 at 2:58:23 AM

Latest Report: Jul 31, 2016 at 1:53 AM


Visibility: 15 mi

Pressure: 29.76 "Hg

Humidity: 85%

Dew Point: 78 °F

Location of WenoLocation

Past Weather in Weno — Graph

°F

Weno Temperature Yesterday

Maximum temperature yesterday: 89 °F (at 1:50 PM)
Minimum temperature yesterday: 77 °F (at 6:59 AM)
Average temperature yesterday: 84 °F

High & Low Weather Summary for the Past Weeks

 TemperatureHumidityPressure
High102 °F (Jul 18, 5:52 PM)99% (Jul 29, 5:50 AM)29.89 "Hg (Jul 29, 5:50 AM)
Low76 °F (Jul 24, 4:50 AM)46% (Jul 18, 5:52 PM)29.71 "Hg (Jul 22, 3:50 PM)
Average84 °F83%29.80 "Hg
* Reported Jul 16 1:55 AM — Jul 31 1:53 AM, Weno, Weather by CustomWeather, © 2016

Note: Actual official high and low records may vary slightly from our data, if they occured in-between our weather recording intervals... More about our weather records

Advertising

Weno Weather History for the Previous 24 Hours

Scroll right to see more
 ConditionsComfort  
Time TempWeatherWind HumidityBarometerVisibility
1:53 AM
Sun, Jul 31
83 °FPassing clouds.6 mph85%29.76 "Hg15 mi
12:59 AM83 °FPassing clouds.3 mph86%29.78 "Hg15 mi
11:53 PM
Sat, Jul 30
84 °FPassing clouds.3 mph81%29.79 "Hg15 mi
9:54 PM83 °FPassing clouds.3 mph84%29.82 "Hg15 mi
8:54 PM83 °FPassing clouds.6 mph85%29.81 "Hg15 mi
7:50 PM83 °FPassing clouds.6 mph84%29.79 "Hg15 mi
6:50 PM83 °FPassing clouds.6 mph84%29.78 "Hg15 mi
5:50 PM84 °FPartly sunny.6 mph80%29.76 "Hg15 mi
4:50 PM87 °FPartly sunny.6 mph74%29.73 "Hg15 mi
4:00 PM86 °FPartly sunny.7 mph80%29.73 "Hg15 mi
3:50 PM86 °FPartly sunny.7 mph80%29.73 "Hg15 mi
2:50 PM89 °FPartly sunny.7 mph71%29.73 "Hg15 mi
1:50 PM89 °FPartly sunny.6 mph70%29.74 "Hg15 mi
12:50 PM89 °FPartly sunny.6 mph72%29.75 "Hg15 mi
11:51 AM89 °FPartly sunny.3 mph71%29.78 "Hg15 mi
10:51 AM88 °FPartly sunny.3 mph77%29.79 "Hg15 mi
9:50 AM88 °FPartly sunny.6 mph76%29.80 "Hg15 mi
8:52 AM84 °FPartly sunny.No wind83%29.80 "Hg15 mi
7:50 AM85 °FScattered clouds.No wind81%29.80 "Hg15 mi
6:59 AM77 °FOvercast.3 mph96%29.80 "Hg15 mi
5:53 AM78 °FOvercast.3 mph97%29.78 "Hg15 mi
4:50 AM78 °FPassing clouds.3 mph94%29.76 "Hg15 mi
3:52 AM78 °FPassing clouds.3 mph95%29.76 "Hg15 mi
2:50 AM78 °FPassing clouds.3 mph94%29.76 "Hg15 mi
Weather by CustomWeather, © 2016

See weather overviewHow to use our weather pages